• In Hungary
  • List of Countries
  • For 7 days
  • Water Temperature
  • Satellite Maps
  • Weather Map
  • News
  • Weather Widgets
  • user-avatar
    Login

    Hourly Weather Spicyno

    Today, 19 July, Thursday

    Time Temperature Precipitation Wind Pressure Humidity
    00:00 +20°C° 0.6 mm 4 mps 735 mmHg 96%
    01:00 +20°C° 0.6 mm 4 mps 735 mmHg 97%
    02:00 +19°C° 0.6 mm 3 mps 735 mmHg 97%
    03:00 +19°C° 0.6 mm 3 mps 735 mmHg 97%
    04:00 +20°C° 0.4 mm 3 mps 736 mmHg 97%
    05:00 +20°C° 0.4 mm 4 mps 736 mmHg 96%
    06:00 +20°C° 0.4 mm 4 mps 736 mmHg 96%
    07:00 +20°C° 0.1 mm 4 mps 736 mmHg 95%
    08:00 +20°C° 0.1 mm 4 mps 737 mmHg 94%
    09:00 +21°C° 0.1 mm 4 mps 737 mmHg 93%
    10:00 +21°C° 0.4 mm 4 mps 737 mmHg 90%
    11:00 +22°C° 0.4 mm 5 mps 737 mmHg 88%
    12:00 +23°C° 0.4 mm 5 mps 737 mmHg 85%
    13:00 +23°C° 1.2 mm 5 mps 738 mmHg 84%
    14:00 +25°C° 1.2 mm 5 mps 738 mmHg 82%
    15:00 +24°C° 1.2 mm 6 mps 738 mmHg 80%
    16:00 +25°C° 1 mm 5 mps 738 mmHg 82%
    17:00 +25°C° 1 mm 5 mps 738 mmHg 83%
    18:00 +23°C° 1 mm 4 mps 738 mmHg 85%
    19:00 +23°C° 0.2 mm 4 mps 738 mmHg 86%
    20:00 +22°C° 0.2 mm 4 mps 738 mmHg 88%
    21:00 +21°C° 0.2 mm 3 mps 738 mmHg 90%
    22:00 +21°C° 0 mm 3 mps 739 mmHg 91%
    23:00 +21°C° 0 mm 3 mps 739 mmHg 91%

    Tomorrow, 20 July, Friday

    Time Temperature Precipitation Wind Pressure Humidity
    00:00 +20°C° 0 mm 3 mps 739 mmHg 92%
    01:00 +20°C° 0 mm 3 mps 739 mmHg 92%
    02:00 +20°C° 0 mm 3 mps 739 mmHg 92%
    03:00 +19°C° 0 mm 3 mps 739 mmHg 92%
    04:00 +19°C° 0 mm 3 mps 739 mmHg 92%
    05:00 +20°C° 0 mm 3 mps 739 mmHg 91%
    06:00 +20°C° 0 mm 3 mps 739 mmHg 90%
    07:00 +22°C° 0.1 mm 3 mps 740 mmHg 86%
    08:00 +23°C° 0.1 mm 4 mps 740 mmHg 81%
    09:00 +26°C° 0.1 mm 4 mps 740 mmHg 76%
    10:00 +27°C° 0.3 mm 4 mps 740 mmHg 72%
    11:00 +28°C° 0.3 mm 4 mps 740 mmHg 67%
    12:00 +29°C° 0.3 mm 4 mps 740 mmHg 62%
    13:00 +29°C° 0.2 mm 4 mps 740 mmHg 62%
    14:00 +29°C° 0.2 mm 4 mps 740 mmHg 61%
    15:00 +30°C° 0.2 mm 4 mps 740 mmHg 61%
    16:00 +29°C° 0.5 mm 3 mps 740 mmHg 66%
    17:00 +29°C° 0.5 mm 3 mps 740 mmHg 71%
    18:00 +28°C° 0.5 mm 3 mps 740 mmHg 75%
    19:00 +26°C° 0.1 mm 3 mps 740 mmHg 79%
    20:00 +25°C° 0.1 mm 2 mps 740 mmHg 83%
    21:00 +24°C° 0.1 mm 2 mps 740 mmHg 86%
    22:00 +23°C° 0.1 mm 2 mps 740 mmHg 88%
    23:00 +21°C° 0.1 mm 2 mps 740 mmHg 89%

    Day after tomorrow, 21 July, Saturday

    Time Temperature Precipitation Wind Pressure Humidity
    00:00 +21°C° 0.1 mm 2 mps 741 mmHg 90%
    01:00 +21°C° 0.5 mm 2 mps 741 mmHg 91%
    02:00 +20°C° 0.5 mm 2 mps 741 mmHg 92%
    03:00 +20°C° 0.5 mm 2 mps 741 mmHg 93%
    04:00 +20°C° 0 mm 2 mps 741 mmHg 92%
    05:00 +20°C° 0 mm 2 mps 741 mmHg 91%
    06:00 +21°C° 0 mm 2 mps 741 mmHg 90%
    07:00 +23°C° 0.2 mm 2 mps 741 mmHg 86%
    08:00 +25°C° 0.2 mm 2 mps 741 mmHg 81%
    09:00 +26°C° 0.2 mm 3 mps 741 mmHg 77%
    10:00 +27°C° 0.5 mm 3 mps 741 mmHg 71%
    11:00 +28°C° 0.5 mm 3 mps 741 mmHg 66%
    12:00 +29°C° 0.5 mm 3 mps 741 mmHg 60%
    13:00 +30°C° 0.3 mm 3 mps 741 mmHg 60%
    14:00 +30°C° 0.3 mm 3 mps 741 mmHg 59%
    15:00 +30°C° 0.3 mm 3 mps 741 mmHg 59%
    16:00 +30°C° 0.3 mm 3 mps 741 mmHg 63%
    17:00 +29°C° 0.3 mm 2 mps 741 mmHg 67%
    18:00 +29°C° 0.3 mm 2 mps 741 mmHg 70%
    19:00 +27°C° 0.4 mm 2 mps 741 mmHg 75%
    20:00 +26°C° 0.4 mm 2 mps 741 mmHg 79%
    21:00 +24°C° 0.4 mm 2 mps 741 mmHg 83%
    22:00 +23°C° 0 mm 2 mps 741 mmHg 85%
    23:00 +23°C° 0 mm 2 mps 741 mmHg 86%

    22 July, Sunday

    Time Temperature Precipitation Wind Pressure Humidity
    00:00 +21°C° 0 mm 2 mps 741 mmHg 88%
    01:00 +21°C° 0 mm 2 mps 741 mmHg 89%
    02:00 +21°C° 0 mm 2 mps 741 mmHg 90%
    03:00 +20°C° 0 mm 2 mps 741 mmHg 91%
    04:00 +21°C° 0 mm 2 mps 741 mmHg 91%
    05:00 +21°C° 0 mm 2 mps 741 mmHg 90%
    06:00 +21°C° 0 mm 2 mps 741 mmHg 90%
    07:00 +24°C° 0 mm 2 mps 741 mmHg 84%
    08:00 +25°C° 0 mm 2 mps 741 mmHg 79%
    09:00 +27°C° 0 mm 2 mps 741 mmHg 74%
    10:00 +28°C° 0.2 mm 3 mps 741 mmHg 69%
    11:00 +29°C° 0.2 mm 3 mps 741 mmHg 64%
    12:00 +30°C° 0.2 mm 3 mps 741 mmHg 59%
    13:00 +30°C° 0.6 mm 3 mps 741 mmHg 59%
    14:00 +30°C° 0.6 mm 3 mps 741 mmHg 58%
    15:00 +31°C° 0.6 mm 3 mps 741 mmHg 58%
    16:00 +30°C° 0.7 mm 3 mps 741 mmHg 63%
    17:00 +29°C° 0.7 mm 2 mps 741 mmHg 69%
    18:00 +28°C° 0.7 mm 2 mps 741 mmHg 74%
    19:00 +27°C° 0.1 mm 2 mps 741 mmHg 78%
    20:00 +26°C° 0.1 mm 2 mps 741 mmHg 82%
    21:00 +24°C° 0.1 mm 3 mps 741 mmHg 86%
    22:00 +24°C° 0 mm 2 mps 741 mmHg 88%
    23:00 +23°C° 0 mm 2 mps 741 mmHg 90%

    23 July, Monday

    Time Temperature Precipitation Wind Pressure Humidity
    00:00 +23°C° 0 mm 2 mps 740 mmHg 91%
    01:00 +21°C° 0 mm 2 mps 741 mmHg 92%
    02:00 +21°C° 0 mm 2 mps 741 mmHg 93%
    03:00 +21°C° 0 mm 2 mps 741 mmHg 93%
    04:00 +21°C° 0 mm 2 mps 741 mmHg 93%
    05:00 +21°C° 0 mm 2 mps 741 mmHg 92%
    06:00 +21°C° 0 mm 2 mps 741 mmHg 91%
    07:00 +24°C° 0 mm 2 mps 741 mmHg 86%
    08:00 +25°C° 0 mm 3 mps 741 mmHg 81%
    09:00 +27°C° 0 mm 3 mps 741 mmHg 76%
    10:00 +28°C° 0.2 mm 3 mps 741 mmHg 71%
    11:00 +29°C° 0.2 mm 3 mps 741 mmHg 67%
    12:00 +30°C° 0.2 mm 3 mps 741 mmHg 62%
    13:00 +30°C° 0.5 mm 3 mps 741 mmHg 62%
    14:00 +30°C° 0.5 mm 4 mps 741 mmHg 61%
    15:00 +30°C° 0.5 mm 4 mps 741 mmHg 61%
    16:00 +30°C° 0.2 mm 3 mps 741 mmHg 64%
    17:00 +29°C° 0.2 mm 3 mps 741 mmHg 68%
    18:00 +29°C° 0.2 mm 3 mps 741 mmHg 71%
    19:00 +27°C° 0.5 mm 3 mps 741 mmHg 75%
    20:00 +26°C° 0.5 mm 2 mps 741 mmHg 79%
    21:00 +24°C° 0.5 mm 2 mps 741 mmHg 83%
    22:00 +24°C° 0.1 mm 2 mps 741 mmHg 85%
    23:00 +24°C° 0.1 mm 2 mps 741 mmHg 87%

    24 July, Tuesday

    Time Temperature Precipitation Wind Pressure Humidity
    00:00 +23°C° 0.1 mm 2 mps 741 mmHg 88%
    01:00 +23°C° 0 mm 2 mps 741 mmHg 89%
    02:00 +21°C° 0 mm 2 mps 741 mmHg 91%
    03:00 +21°C° 0 mm 2 mps 742 mmHg 92%
    04:00 +21°C° 0.1 mm 3 mps 742 mmHg 91%
    05:00 +21°C° 0.1 mm 3 mps 742 mmHg 91%
    06:00 +21°C° 0.1 mm 3 mps 742 mmHg 91%
    07:00 +24°C° 0.3 mm 3 mps 742 mmHg 87%
    08:00 +25°C° 0.3 mm 3 mps 742 mmHg 82%
    09:00 +27°C° 0.3 mm 3 mps 742 mmHg 78%
    10:00 +28°C° 0.4 mm 3 mps 742 mmHg 73%
    11:00 +29°C° 0.4 mm 3 mps 743 mmHg 68%
    12:00 +30°C° 0.4 mm 3 mps 743 mmHg 63%
    13:00 +30°C° 1.7 mm 3 mps 743 mmHg 64%
    14:00 +30°C° 1.7 mm 3 mps 743 mmHg 65%
    15:00 +30°C° 1.7 mm 3 mps 743 mmHg 66%
    16:00 +29°C° 1.1 mm 3 mps 743 mmHg 70%
    17:00 +28°C° 1.1 mm 3 mps 743 mmHg 74%
    18:00 +28°C° 1.1 mm 2 mps 743 mmHg 78%
    19:00 +27°C° 0.3 mm 3 mps 744 mmHg 81%
    20:00 +25°C° 0.3 mm 3 mps 744 mmHg 85%
    21:00 +24°C° 0.3 mm 3 mps 744 mmHg 88%
    22:00 +24°C° 0 mm 3 mps 744 mmHg 90%
    23:00 +22°C° 0 mm 3 mps 744 mmHg 91%
    Show more